Regional Weather Roundup
Issued by NWS

Home | Current Version | Previous Version | Graphics & Text | Print | Product List | Glossary On
Versions: 1 2 3 4 5 6 7 8 9 10 11 12 13 14 15 16 17 18 19 20 21 22 23 24 25 26 27 28 29 30 31 32 33 34 35 36 37 38 39 40 41 42 43 44 45 46 47 48 49 50
000
ASUS43 KDMX 200206
RWRIA

WEATHER ROUNDUP FOR IOWA
NATIONAL WEATHER SERVICE DES MOINES IA
900 PM CDT WED JUL 19 2017

NOTE: "FAIR" INDICATES FEW OR NO CLOUDS BELOW 12,000 FEET WITH NO
SIGNIFICANT WEATHER AND/OR OBSTRUCTIONS TO VISIBILITY.

* - THESE STATIONS ARE NOT NWS STATIONS...THUS NOT UNDER NWS
QUALITY CONTROL.  THEY ALSO DO NOT REPORT WEATHER SUCH
AS PRECIPITATION OR FOG.

IAZ001>003-012>014-020>022-031>034-043>046-200300-
   NORTHWEST IOWA

CITY           SKY/WX    TMP DP  RH WIND       PRES   REMARKS
CARROLL *      CLOUDY    82  79  89 SW5       29.96R HX  93
CHEROKEE *     DRIZZLE   84  78  82 S25       29.84F HX  94
DENISON *      MOCLDY    84  79  84 CALM      29.98R HX  96
ORANGE CITY *  CLOUDY    88  75  66 NW7G22    29.86R HX  97
SHELDON *      CLOUDY    84  75  74 SE5       29.86F HX  92
SIOUX CITY     LGT RAIN  86  79  79 S14       29.89F HX  99
SPENCER        CLOUDY    86  74  67 S7        29.89F HX  94
STORM LAKE *   CLOUDY    84  77  79 S16       29.90F HX  94
$$

IAZ055>058-069>071-079>083-090>094-200300-
   SOUTHWEST IOWA

CITY           SKY/WX    TMP DP  RH WIND       PRES   REMARKS
ATLANTIC *     CLOUDY    84  79  84 S7G14     29.94S HX  96
AUDUBON *      CLOUDY    82  77  83 S6        29.97S HX  91
CLARINDA *       N/A     84  79  84 S7        29.97R HX  96
COUNCIL BLFS * PTCLDY    84  82  94 S9        29.93S HX 101
CRESTON *      CLEAR     81  77  89 S9        30.00R HX  88
HARLAN  *      CLOUDY    82  79  89 S8        29.98R HX  93
LAMONI         MOCLDY    82  78  88 S6        30.00S THUNDER HX  91
RED OAK *      CLEAR     84  79  84 S7        29.95R HX  96
SHENANDOAH *   CLEAR     84  77  79 S9        29.95R HX  94
$$

IAZ047>049-059>061-072>074-084-200300-
   CENTRAL IOWA

CITY           SKY/WX    TMP DP  RH WIND       PRES   REMARKS
AMES           CLEAR     84  75  74 S10       29.95R HX  92
ANKENY *       CLOUDY    82  75  78 S6        29.98R HX  89
BOONE *        CLOUDY    81  75  83 S6        29.96R HX  86
CHARITON *     CLOUDY    82  73  74 SE7       30.00S HX  88
DES MOINES     CLOUDY    85  74  69 S9        29.96R HX  92
GRINNELL*      CLEAR     81  72  75 S7        30.00S HX  85
KNOXVILLE *    MOCLDY    84  72  65 S7        29.97F HX  89
MARSHALLTOWN   CLEAR     85  74  69 SE7       29.97R HX  92
NEWTON *       MOCLDY    81  73  78 S7        29.99R HX  85
PELLA *        PTCLDY    83  70  63 SE3       30.00S HX  87
PERRY *          N/A     83  78  84 S6        29.96R HX  93
$$

IAZ004>006-015-016-023>025-035-036-200300-
   NORTH CENTRAL IOWA

CITY           SKY/WX    TMP DP  RH WIND       PRES   REMARKS
ALGONA *       MOCLDY    77  72  83 SE10G16   29.90F
CLARION *      CLOUDY    77  73  88 SE12      29.94R
ESTHERVILLE    CLOUDY    75  70  84 SE7       29.89F
FORT DODGE *   CLOUDY    84  73  70 S15G21    29.92F HX  91
MASON CITY     CLOUDY    71  68  90 S8        29.94S
FOREST CITY *    N/A     72  68  88 SE6       29.92S
WEBSTER CITY * CLOUDY    84  73  70 S9        29.92S HX  91
IOWA FALLS *     N/A     75  70  84 SE10      29.96S
$$

IAZ007>011-017>019-026>030-037>042-050>054-066-200300-
   NORTHEAST IOWA

CITY           SKY/WX    TMP DP  RH WIND       PRES   REMARKS
CEDAR RAPIDS   PTCLDY    74  71  91 E13       30.00S
CHARLES CITY * CLOUDY    72  72 100 SE6       29.94F
CLINTON *      CLOUDY    75  67  76 N20G28    30.08R
DECORAH *      CLOUDY    66  66 100 SE6       29.95F
DUBUQUE        CLOUDY    70  66  87 SW8       30.02F
MONTICELLO *   LGT RAIN  72  70  94 SE5       30.02F
OELWEIN *      CLOUDY    72  72 100 SE9       29.98R
WATERLOO       CLOUDY    74  65  73 SE12      29.95F
$$

IAZ064-065-067-068-078-200300-
   EAST CENTRAL IOWA

CITY           SKY/WX    TMP DP  RH WIND       PRES   REMARKS
DAVENPORT      MOCLDY    80  73  79 N22G28    30.08R HX  84
IOWA CITY      CLOUDY    83  77  82 SE8       30.00F HX  92
MT. PLEASANT * CLEAR     80  73  80 CALM      30.02R HX  84
MUSCATINE *    CLOUDY    84  75  74 CALM      30.02R HX  92
QUAD CITIES    CLOUDY    81  75  82 CALM      30.03R HX  87
$$

IAZ062-063-075>077-085>089-095>099-200300-
   SOUTHEAST IOWA

CITY           SKY/WX    TMP DP  RH WIND       PRES   REMARKS
BURLINGTON     CLEAR     83  77  82 S3        30.02R HX  92
FAIRFIELD *    MOCLDY    84  72  65 S7        30.01F HX  89
FORT MADISON * CLEAR     82  77  83 CALM      30.03S HX  91
KEOKUK *       CLEAR     86  75  70 S3        30.01S HX  95
OSKALOOSA *      N/A     81  71  72 S6        30.01R HX  84
CENTERVILLE *    N/A     81  75  83 CALM      30.03R HX  86
OTTUMWA        PTCLDY    83  73  72 S6        30.00R HX  89
WASHINGTON *   PTCLDY    81  75  83 S5        30.03S HX  86
$$

ABBREVIATIONS USED IN REMARKS
   TC - TEMPERATURES IN CELSIUS
  WCI - WIND CHILL INDEX
   HX - HEAT INDEX
  VSB - VISIBILITY
$$




USA.gov is the U.S. government's official web portal to all federal, state and local government web resources and services.